Flag for Germany Weather past 2 weeks in Niederkassel, North Rhine-Westphalia, Germany

Now
67 °F

Passing clouds.


Feels Like: 67 °F
Forecast: 53 / 69 °F
Wind: 5 mph from West

Location: Bonn-Hangelar

Current Time: Sep 30, 2014 at 5:23:11 PM

Latest Report: Sep 30, 2014 at 5:00 PM


Visibility: 16 mi

Pressure: 30.27 "Hg

Humidity: 71%

Dew point: 57 °F

Location of NiederkasselLocation

Historic Weather in Niederkassel — Graph

°F

Niederkassel temperature yesterday

Maximum temperature yesterday: 68 °F (at 12:00 PM)
Minimum temperature yesterday: 59 °F (at 8:00 PM)
Average temperature yesterday: 63 °F

Past Weeks' High & Low Weather Summary

 TemperatureHumidityPressure
High75 °F (Sep 17, 3:00 PM)98% (Sep 21, 4:00 AM)30.37 "Hg (Sep 21, 4:00 AM)
Low44 °F (Sep 23, 5:00 AM)52% (Sep 17, 2:00 PM)29.80 "Hg (Sep 18, 6:00 PM)
Average60 °F81%30.07 "Hg
* Reported Sep 15 4:00 PM — Sep 30 4:00 PM, Niederkassel, Weather by CustomWeather, © 2014

Note: Actual official high and low records may vary slightly from our data, if they occured in-between our weather recording intervals... More about our weather records

Advertising

Niederkassel weather history for previous 24 hours

 ConditionsComfort  
Time TempWeatherWind HumidityBarometerVisibility
4:00 PM
Sep 30
67 °FScattered clouds.5 mph67%30.27 "Hg16 mi
3:00 PM66 °FScattered clouds.5 mph71%30.28 "Hg11 mi
2:00 PM65 °FPartly sunny.6 mph72%30.28 "Hg9 mi
1:00 PM64 °FPartly sunny.5 mph82%30.29 "Hg7 mi
12:00 PM62 °FOvercast.6 mph81%30.28 "Hg7 mi
11:00 AM62 °FOvercast.6 mph86%30.27 "Hg6 mi
10:00 AM61 °FLow clouds.3 mph92%30.27 "Hg5 mi
9:00 AM60 °FLow clouds.3 mph94%30.26 "Hg5 mi
8:00 AM60 °FOvercast.5 mph94%30.24 "Hg6 mi
7:00 AM60 °FOvercast.5 mph93%30.24 "Hg12 mi
6:00 AM59 °FOvercast.5 mph92%30.23 "Hg12 mi
5:00 AM59 °FOvercast.6 mph92%30.23 "Hg5 mi
4:00 AM60 °FOvercast.6 mph91%30.22 "Hg7 mi
3:00 AM59 °FOvercast.6 mph90%30.22 "Hg9 mi
2:00 AM59 °FOvercast.7 mph91%30.22 "Hg11 mi
1:00 AM60 °FOvercast.7 mph89%30.22 "Hg17 mi
12:00 AM59 °FPassing clouds.6 mph89%30.23 "Hg14 mi
11:00 PM
Sep 29
60 °FOvercast.5 mph87%30.22 "Hg17 mi
10:00 PM60 °FOvercast.6 mph86%30.22 "Hg22 mi
9:00 PM60 °FOvercast.5 mph89%30.21 "Hg19 mi
8:00 PM59 °FOvercast.6 mph92%30.22 "Hg16 mi
7:00 PM60 °FLight rain. Overcast.5 mph89%30.22 "Hg12 mi
6:00 PM62 °FLight rain. Overcast.5 mph85%30.22 "Hg11 mi
5:00 PM63 °FLight rain. Overcast.6 mph81%30.22 "Hg16 mi
Weather by CustomWeather, © 2014

See weather overviewHow to use our weather pages